Temperature
9 9 9 9 9 9 9 9 8 8 8 8 8 8 8 8 8 8 8 8 8 8 8 8 8 8 8 8 7 7 7 7 7 7 7 7 7 7 7 7 7 7 7
8 9 9 9 9 8 8 8 8 8 8 8 8 8 8 7 7 7 7 7 7 7 7 7 7 7 7 7 7 7 7 7 6 6 6 6 6 6 7 7 7 7 6
8 8 8 8 8 8 8 8 8 8 7 7 7 7 7 7 7 7 7 7 7 7 7 7 7 7 7 7 7 6 6 6 6 6 5 5 6 5 6 6 6 6 6
8 8 8 8 8 8 8 7 7 7 7 7 7 7 6 6 6 6 6 6 6 6 6 6 6 6 6 6 6 6 6 6 5 5 5 5 5 5 5 5 5 5 5
7 7 7 7 8 7 7 7 7 7 7 6 6 6 6 6 6 6 6 6 6 6 5 6 6 6 6 6 5 5 5 5 5 5 5 5 5 5 4 4 5 5 5
7 7 7 7 7 7 7 6 6 6 6 6 6 6 6 6 5 5 5 5 5 5 5 5 5 5 5 5 5 5 5 5 5 5 5 5 4 4 4 4 4 4 4
7 6 6 6 6 6 6 6 6 6 6 6 6 5 5 5 5 5 5 5 5 5 4 4 5 4 4 4 4 4 4 4 4 4 4 4 4 4 4 4 3 3 3
6 6 6 6 6 6 5 5 5 5 5 5 5 5 5 5 5 5 5 4 4 4 4 4 4 4 4 4 4 4 4 4 4 4 4 4 4 3 3 3 3 2 2
5 5 5 5 5 5 5 5 5 5 5 5 5 5 5 4 4 4 4 4 4 4 4 4 3 3 3 3 3 3 3 3 3 3 3 3 3 3 3 3 2 2 2
5 5 5 5 5 5 4 4 4 4 4 4 4 4 4 4 4 4 4 4 3 3 3 3 3 3 3 3 3 3 3 3 3 3 2 2 2 3 3 2 2 2 1
5 4 4 4 4 4 4 4 4 4 4 4 4 4 4 4 4 4 3 3 3 3 3 3 2 2 2 2 2 2 2 2 2 2 2 2 2 2 2 2 2 1 1
4 4 4 4 3 3 3 3 3 3 3 3 3 3 3 3 3 3 3 3 2 2 2 2 2 2 2 2 2 2 2 2 2 2 2 2 2 2 2 1 1 1 1
4 4 3 3 3 3 3 3 3 3 3 3 3 3 3 3 3 3 3 2 2 2 2 2 2 2 2 1 1 1 1 1 1 1 1 1 1 1 1 1 1 1 0
3 3 3 3 3 2 2 2 2 2 2 2 2 2 2 2 2 2 2 2 2 2 2 1 1 1 1 1 1 1 1 1 1 1 1 1 1 1 1 0 0 0 -0
3 3 3 3 2 2 2 2 2 2 2 2 2 2 2 2 2 2 1 1 1 1 1 1 1 1 1 1 0 0 0 0 0 0 0 0 0 0 0 -0 -0 -0 -0
3 3 2 2 2 2 2 1 1 1 1 1 1 1 1 1 1 1 1 1 1 1 0 0 0 0 0 0 -0 -0 -0 -0 -0 -0 -0 -0 -0 -0 -0 -0 -1 -1 -1
3 2 2 2 2 2 1 1 1 1 1 1 1 1 1 1 1 1 1 0 0 0 0 0 -0 -0 -0 -0 -1 -1 -1 -1 -1 -1 -1 -1 -1 -1 -1 -1 -1 -1 -1
2 2 2 2 2 1 1 1 1 1 1 1 1 0 0 0 0 0 0 0 -0 -0 -0 -0 -0 -0 -0 -1 -1 -1 -1 -1 -1 -1 -1 -2 -1 -1 -1 -1 -1 -1 -1
2 2 2 2 1 1 1 1 1 1 1 0 0 0 0 0 -0 -0 -0 -0 -0 -1 -1 -1 -1 -1 -1 -1 -1 -2 -2 -2 -2 -2 -2 -2 -2 -2 -2 -2 -2 -2 -2
2 2 1 1 1 1 1 0 0 0 0 0 0 -0 -0 -0 -0 -1 -1 -1 -1 -1 -1 -1 -1 -1 -1 -1 -2 -2 -2 -2 -2 -2 -2 -2 -2 -2 -2 -2 -2 -2 -2
1 1 1 1 1 0 0 -0 -0 -0 -0 -0 -0 -1 -1 -1 -1 -1 -1 -1 -2 -2 -2 -2 -2 -2 -2 -2 -2 -2 -2 -2 -2 -2 -2 -2 -3 -3 -3 -3 -3 -3 -3
1 1 0 0 0 0 -0 -0 -0 -0 -0 -0 -1 -1 -1 -1 -1 -2 -2 -2 -2 -2 -2 -2 -2 -2 -2 -2 -2 -2 -3 -3 -3 -3 -3 -3 -3 -3 -3 -3 -3 -3 -3
1 0 -0 -0 -0 -0 -1 -1 -1 -1 -1 -1 -1 -1 -2 -2 -2 -2 -2 -2 -2 -3 -3 -3 -3 -3 -3 -3 -3 -3 -3 -3 -3 -3 -3 -4 -4 -4 -4 -4 -4 -4 -4
-0 -0 -1 -1 -1 -1 -1 -1 -1 -1 -1 -1 -1 -2 -2 -2 -2 -3 -3 -3 -3 -3 -3 -3 -3 -3 -3 -3 -3 -3 -3 -3 -4 -4 -4 -4 -4 -4 -4 -4 -4 -4 -4
-1 -1 -1 -1 -1 -1 -2 -2 -2 -2 -2 -2 -2 -2 -2 -3 -3 -3 -3 -3 -3 -3 -3 -3 -3 -4 -3 -3 -4 -4 -4 -4 -4 -4 -4 -4 -4 -4 -4 -4 -4 -4 -4
-1 -1 -1 -2 -2 -2 -2 -2 -2 -2 -2 -2 -2 -3 -3 -3 -3 -3 -4 -4 -4 -4 -4 -4 -4 -4 -4 -4 -4 -4 -4 -4 -4 -4 -4 -5 -5 -5 -5 -5 -5 -5 -5
Wind_Speed
5 4 5 4 4 4 3 4 3 3 3 3 3 2 2 1 1 1 1 2 2 2 3 2 2 3 3 3 3 2 1 1 1 1 2 3 2 1 1 1 0 0 1
4 4 4 4 5 5 4 3 3 3 3 4 3 2 2 2 2 1 0 1 2 2 3 3 3 3 3 3 3 2 2 0 1 2 1 1 2 2 2 1 1 1 1
7 6 5 5 5 5 5 5 4 4 3 3 2 2 1 0 0 1 1 1 2 3 3 3 3 3 3 3 3 4 3 2 1 1 2 2 3 2 2 2 1 1 1
6 5 5 5 5 6 5 5 4 4 3 3 4 4 3 3 3 2 2 1 2 2 2 3 3 3 3 4 4 3 3 3 2 1 0 1 2 2 1 2 2 2 1
6 6 6 6 5 4 5 4 4 4 4 4 5 5 4 3 2 1 1 1 1 1 2 2 3 3 2 3 4 3 3 3 3 2 1 1 1 1 2 2 3 3 3
5 4 3 3 2 2 3 3 3 3 3 4 4 5 5 4 3 3 2 2 1 1 1 1 2 2 2 3 3 4 4 3 3 2 2 2 2 2 2 3 3 3 3
5 4 3 3 2 3 3 3 4 3 3 4 4 4 5 5 5 4 4 3 2 1 2 2 1 1 2 2 2 3 4 4 4 4 3 3 3 2 2 2 2 3 3
5 5 5 5 4 3 3 3 3 3 3 4 4 4 4 4 4 4 4 4 3 3 3 2 2 2 2 2 2 2 3 3 4 4 3 2 3 2 3 3 2 2 2
5 5 4 4 3 3 3 3 3 3 3 3 4 4 4 4 4 4 3 3 2 2 3 3 2 2 2 2 2 2 2 2 3 4 4 3 3 2 2 2 3 3 3
4 4 4 3 2 2 1 1 2 3 3 3 3 2 3 3 4 3 3 3 2 2 2 2 2 2 2 2 2 2 2 3 3 3 3 3 3 2 2 2 2 3 3
5 4 3 2 2 1 1 1 1 1 1 2 2 2 2 2 3 3 3 2 2 2 2 2 2 3 3 2 3 3 2 3 3 3 3 4 3 3 3 2 2 3 3
4 3 3 2 2 1 1 1 0 1 1 2 2 2 2 2 2 2 2 2 2 2 2 2 2 3 2 3 3 3 3 3 3 4 4 4 3 3 3 3 3 3 4
3 2 3 3 2 2 1 1 0 1 1 2 2 2 2 2 2 2 2 2 2 2 1 1 2 2 2 3 3 3 3 3 4 4 4 4 3 4 3 3 4 3 3
4 4 3 3 2 2 2 1 1 1 2 2 2 2 2 2 2 2 2 2 2 2 2 1 2 2 2 2 3 3 3 3 3 3 4 4 4 5 5 4 5 4 4
4 5 4 3 2 2 2 1 1 1 2 2 2 1 1 2 2 1 1 1 1 1 1 1 1 1 1 2 2 2 3 3 3 3 3 4 5 6 5 5 4 4 4
5 5 4 4 4 3 3 2 1 1 2 2 2 1 1 1 1 1 1 1 1 1 1 1 1 2 2 3 3 3 2 3 3 4 4 4 4 5 7 8 7 6 5
5 5 5 5 4 4 3 3 3 1 2 2 1 1 2 1 1 1 1 1 1 1 1 1 1 2 3 4 4 4 2 3 3 4 4 4 3 4 3 4 6 6 7
5 5 4 4 3 3 3 3 2 2 2 2 2 1 1 1 1 1 0 1 1 1 2 1 2 2 3 4 4 4 2 2 3 3 4 4 4 3 3 2 2 3 4
5 4 4 3 3 3 3 2 2 2 2 3 2 2 2 1 1 0 1 1 1 1 1 1 2 2 3 4 4 4 2 2 3 3 3 3 4 5 5 3 3 3 4
2 2 2 2 3 2 2 3 2 2 3 3 3 2 2 2 2 1 1 1 1 1 1 1 2 2 3 4 4 4 1 2 2 2 2 5 5 6 6 4 4 4 4
2 2 2 2 2 2 3 2 2 2 2 2 2 2 2 2 2 1 1 1 1 1 1 2 2 2 3 4 5 4 1 2 2 2 2 3 6 6 6 5 4 6 4
2 2 2 1 1 2 3 2 2 2 1 2 2 2 1 1 1 1 1 1 1 0 1 1 2 2 2 3 4 5 4 3 2 3 3 3 5 5 5 4 3 4 3
1 2 3 2 0 1 2 2 2 1 1 1 2 1 1 1 1 1 1 1 0 1 1 1 2 2 2 2 4 4 5 5 3 3 4 5 5 4 3 3 4 3 2
1 2 2 2 1 0 0 1 1 1 1 2 2 1 1 1 0 1 1 1 1 1 2 2 2 2 2 2 2 2 3 3 3 2 3 4 3 2 2 2 2 1 2
1 2 2 2 2 1 0 1 1 1 1 1 1 1 1 1 1 0 1 2 3 3 3 3 3 3 3 4 5 3 2 2 2 1 1 0 1 1 1 1 1 1 1
2 2 2 2 1 1 1 1 1 2 2 1 1 1 1 1 1 1 1 2 2 3 4 4 4 3 5 6 6 6 5 4 3 1 1 1 1 2 2 2 2 2 2
Wind_Direction
215 190 179 170 159 158 160 167 164 175 164 166 169 177 196 200 199 169 191 185 184 174 161 162 165 159 170 178 172 154 144 116 90 65 1 337 322 283 266 211 140 224 254
201 192 181 173 175 176 177 178 179 183 180 185 186 188 188 200 203 177 178 187 185 187 184 166 174 175 174 176 177 154 150 164 128 130 104 325 328 325 318 304 232 277 337
193 195 187 190 186 184 188 190 191 187 187 180 162 137 101 72 220 228 229 227 202 202 192 182 174 179 175 189 194 178 169 180 222 152 160 180 231 288 306 306 298 313 317
195 191 188 192 197 197 192 192 193 189 188 175 168 168 178 204 223 220 224 230 211 198 195 182 176 179 176 187 201 189 183 170 194 239 201 204 195 202 284 313 316 317 306
192 192 195 197 199 190 186 192 190 190 186 179 179 181 192 207 202 198 205 223 214 190 188 182 172 173 180 185 194 194 186 183 188 195 212 246 287 223 208 265 296 316 297
188 187 187 178 179 176 178 177 177 193 192 188 186 188 193 191 187 200 206 217 220 198 216 197 176 178 180 190 198 198 194 197 191 195 200 204 217 230 216 241 262 277 290
181 176 176 175 181 178 178 176 176 194 197 193 195 197 196 191 197 203 206 202 202 216 224 214 191 195 203 194 192 190 196 197 195 205 217 220 233 233 220 223 246 272 290
186 185 190 190 192 191 183 178 182 199 203 198 199 199 194 193 201 204 202 201 203 212 209 202 203 215 218 203 181 189 205 196 196 211 215 224 240 237 221 212 212 261 284
192 193 193 190 188 191 202 191 188 206 215 204 192 192 193 193 193 197 195 193 196 198 192 192 194 204 216 208 182 192 210 202 205 211 214 224 236 237 233 226 208 207 250
195 193 191 191 188 191 211 193 192 215 221 195 188 183 190 192 184 178 181 184 187 183 175 186 198 198 198 202 198 204 207 207 218 213 214 230 233 236 230 225 226 219 227
194 192 192 187 178 156 152 169 187 201 182 172 167 158 162 166 164 169 176 175 175 174 177 194 203 206 206 211 209 217 220 223 234 233 225 235 231 232 234 227 228 229 223
194 186 179 171 169 167 187 182 173 163 161 149 143 151 148 145 154 167 177 168 179 185 189 194 209 214 209 208 214 224 231 224 232 239 235 241 239 236 236 230 234 233 223
186 178 170 177 189 193 206 208 207 181 153 135 129 129 135 147 161 175 179 169 175 179 185 196 219 228 221 217 221 225 234 235 237 243 243 245 237 242 242 234 235 236 240
189 185 186 198 201 204 206 201 218 170 143 135 132 142 160 163 170 176 175 173 173 185 199 215 232 238 232 223 224 228 235 240 244 247 247 247 242 241 239 239 237 234 238
196 197 196 209 209 212 218 206 205 163 140 140 149 179 176 155 153 167 173 162 179 197 198 210 258 264 247 233 227 232 238 243 257 261 258 255 252 252 249 245 236 227 231
212 210 208 204 205 210 209 205 206 208 171 159 176 179 151 145 153 172 165 161 213 213 196 220 242 270 272 274 269 259 242 246 252 264 269 270 268 266 266 259 249 238 231
220 216 214 212 210 208 199 203 203 209 190 180 180 173 158 148 163 172 152 193 231 216 229 237 238 262 272 274 276 273 255 250 254 258 264 271 270 272 260 268 269 265 258
218 221 218 215 209 195 191 191 183 188 185 176 178 170 155 159 144 139 182 237 234 228 231 243 249 262 275 278 277 283 264 251 256 258 253 253 260 257 241 243 261 264 265
213 214 208 199 187 185 178 166 170 176 171 181 193 191 182 180 182 207 267 272 254 261 250 250 245 253 272 279 277 282 248 251 263 258 251 248 246 262 259 239 241 255 264
195 190 173 161 170 184 161 152 174 180 190 198 203 198 188 185 205 226 247 259 246 264 280 277 257 251 264 283 285 283 236 249 265 270 260 257 259 265 265 238 231 249 256
175 156 155 171 187 172 151 164 190 220 222 195 189 196 196 200 213 224 239 242 259 299 300 296 285 267 275 290 292 289 246 235 257 270 275 270 277 277 274 261 238 248 253
159 146 147 164 178 154 153 179 227 247 223 177 176 192 201 209 196 181 238 242 209 243 291 309 311 297 291 296 298 296 283 269 242 257 267 274 284 284 284 278 261 263 261
163 143 145 142 108 141 159 191 236 235 187 146 153 168 183 188 174 185 203 237 238 242 270 279 295 299 300 299 303 302 296 292 276 260 273 283 291 296 296 288 284 279 251
164 148 141 152 191 230 166 208 227 215 168 164 162 162 167 168 175 206 203 211 226 238 254 261 272 287 295 295 295 293 294 288 296 291 289 300 310 315 311 308 308 295 257
178 155 162 180 212 223 232 233 210 185 178 174 168 167 173 177 196 261 247 237 240 236 238 241 240 256 274 281 289 292 279 262 258 264 248 287 305 309 303 302 303 288 276
172 160 167 184 218 233 251 249 209 181 184 183 187 191 187 193 202 245 316 308 273 286 283 278 269 264 271 289 295 300 300 293 286 272 232 248 253 262 276 282 279 263 260
Height
1494 1495 1495 1496 1497 1498 1499 1499 1500 1501 1502 1503 1503 1504 1504 1505 1506 1507 1507 1508 1508 1508 1509 1510 1511 1512 1512 1513 1513 1514 1515 1515 1516 1516 1516 1516 1516 1516 1516 1517 1517 1517 1517
1490 1491 1492 1493 1493 1494 1495 1496 1497 1498 1499 1500 1500 1501 1502 1502 1503 1503 1504 1505 1505 1506 1506 1507 1508 1508 1509 1509 1510 1511 1511 1512 1513 1513 1513 1514 1514 1513 1513 1513 1513 1514 1514
1485 1486 1487 1489 1489 1490 1491 1492 1493 1494 1495 1496 1497 1498 1499 1499 1500 1500 1501 1501 1502 1502 1503 1504 1504 1505 1505 1506 1507 1507 1508 1509 1510 1511 1512 1512 1511 1510 1510 1510 1510 1510 1510
1482 1483 1484 1485 1486 1487 1488 1489 1490 1491 1492 1493 1493 1494 1494 1495 1496 1497 1497 1498 1499 1499 1500 1500 1501 1501 1502 1502 1503 1504 1505 1506 1506 1507 1508 1509 1509 1509 1507 1507 1507 1507 1507
1478 1479 1480 1481 1482 1483 1484 1486 1487 1487 1488 1489 1490 1491 1491 1492 1493 1494 1494 1495 1495 1496 1497 1497 1497 1498 1498 1498 1499 1500 1501 1502 1503 1504 1504 1505 1505 1505 1504 1503 1503 1503 1504
1475 1476 1478 1478 1479 1480 1481 1482 1483 1483 1484 1485 1486 1487 1488 1488 1489 1490 1491 1492 1492 1493 1493 1494 1494 1494 1494 1495 1495 1496 1497 1498 1499 1500 1501 1501 1501 1501 1501 1500 1499 1499 1500
1472 1473 1474 1475 1476 1476 1477 1478 1479 1480 1481 1481 1482 1483 1484 1485 1486 1486 1487 1488 1488 1489 1490 1490 1491 1491 1491 1491 1492 1492 1493 1494 1495 1496 1497 1498 1498 1498 1498 1497 1496 1496 1496
1469 1470 1471 1472 1473 1474 1474 1475 1475 1476 1477 1478 1478 1479 1480 1481 1482 1483 1484 1485 1485 1486 1487 1487 1487 1488 1488 1488 1489 1489 1490 1490 1491 1492 1493 1493 1494 1494 1494 1494 1494 1493 1492
1467 1468 1469 1470 1471 1471 1472 1472 1472 1473 1473 1474 1475 1476 1477 1478 1479 1480 1480 1481 1482 1483 1483 1484 1484 1484 1485 1485 1485 1485 1486 1486 1487 1487 1488 1489 1490 1490 1490 1490 1490 1491 1489
1465 1466 1467 1468 1469 1469 1470 1470 1470 1470 1470 1471 1472 1472 1473 1474 1475 1476 1477 1478 1478 1479 1480 1480 1481 1481 1482 1482 1482 1482 1482 1483 1483 1483 1484 1485 1485 1485 1486 1486 1486 1486 1486
1463 1464 1465 1466 1467 1467 1467 1467 1467 1467 1467 1468 1469 1469 1470 1471 1472 1472 1473 1474 1475 1476 1476 1477 1477 1478 1478 1479 1479 1479 1479 1479 1479 1479 1480 1480 1480 1481 1481 1482 1482 1482 1482
1462 1463 1464 1465 1465 1465 1465 1465 1464 1465 1465 1466 1466 1467 1467 1468 1468 1469 1470 1471 1472 1473 1473 1474 1474 1474 1475 1475 1475 1475 1476 1476 1475 1476 1476 1475 1476 1476 1477 1477 1478 1478 1478
1461 1461 1462 1462 1463 1463 1462 1462 1462 1462 1463 1463 1464 1464 1465 1465 1465 1466 1467 1467 1468 1469 1470 1470 1471 1471 1471 1472 1472 1472 1472 1472 1472 1472 1472 1471 1472 1472 1472 1473 1473 1473 1473
1459 1459 1460 1460 1461 1461 1460 1460 1460 1461 1461 1461 1462 1462 1462 1463 1463 1463 1464 1464 1465 1466 1467 1467 1468 1468 1468 1468 1469 1469 1469 1468 1468 1468 1468 1467 1468 1468 1468 1468 1469 1469 1469
1457 1457 1458 1458 1458 1458 1458 1458 1458 1459 1459 1459 1459 1460 1460 1461 1461 1461 1461 1462 1462 1463 1464 1464 1464 1465 1465 1465 1465 1465 1465 1465 1465 1465 1464 1464 1464 1464 1464 1464 1464 1464 1464
1454 1454 1455 1456 1456 1456 1456 1456 1456 1457 1457 1457 1458 1458 1458 1458 1458 1459 1459 1459 1460 1460 1461 1461 1461 1461 1461 1462 1462 1462 1461 1461 1461 1461 1460 1460 1459 1459 1460 1460 1460 1460 1460
1451 1451 1452 1452 1453 1453 1454 1454 1454 1455 1455 1455 1455 1456 1456 1456 1456 1457 1457 1457 1457 1458 1458 1458 1458 1458 1458 1458 1458 1458 1458 1457 1457 1457 1456 1456 1455 1455 1455 1455 1455 1455 1455
1449 1449 1449 1450 1450 1451 1451 1451 1452 1452 1452 1452 1453 1453 1454 1454 1454 1454 1454 1454 1455 1455 1455 1455 1455 1455 1455 1455 1455 1455 1454 1454 1453 1453 1452 1452 1451 1452 1451 1451 1451 1450 1451
1446 1446 1447 1447 1448 1448 1448 1448 1448 1449 1449 1450 1450 1451 1451 1451 1451 1451 1451 1452 1452 1452 1451 1451 1452 1452 1452 1452 1452 1451 1451 1450 1450 1449 1449 1448 1448 1448 1448 1447 1447 1446 1446
1443 1444 1444 1445 1445 1445 1445 1445 1445 1446 1446 1447 1448 1448 1449 1449 1449 1449 1449 1449 1449 1449 1448 1448 1449 1449 1449 1449 1449 1448 1448 1447 1446 1446 1445 1445 1445 1444 1444 1444 1443 1443 1442
1441 1442 1442 1442 1442 1442 1443 1443 1443 1443 1444 1444 1445 1446 1446 1446 1446 1446 1446 1446 1446 1446 1446 1446 1446 1446 1446 1446 1445 1445 1444 1444 1443 1442 1442 1442 1441 1441 1440 1440 1440 1439 1439
1439 1439 1439 1440 1440 1440 1440 1441 1441 1441 1441 1441 1442 1442 1443 1443 1443 1443 1443 1443 1443 1443 1443 1443 1443 1443 1443 1443 1442 1442 1441 1441 1440 1439 1438 1438 1438 1437 1437 1436 1436 1436 1436
1437 1437 1437 1437 1438 1438 1439 1439 1439 1439 1438 1439 1439 1440 1441 1441 1441 1441 1440 1440 1441 1440 1440 1440 1440 1440 1440 1440 1439 1439 1438 1437 1437 1436 1435 1435 1434 1434 1433 1433 1433 1433 1432
1435 1435 1435 1435 1436 1436 1437 1437 1437 1437 1437 1437 1437 1437 1438 1438 1438 1438 1438 1438 1438 1438 1438 1438 1438 1437 1437 1437 1436 1436 1435 1434 1433 1432 1432 1431 1431 1430 1430 1430 1429 1429 1429
1433 1433 1433 1433 1434 1434 1435 1435 1435 1435 1435 1434 1435 1435 1436 1436 1436 1436 1436 1436 1437 1437 1436 1436 1435 1435 1434 1434 1434 1433 1432 1431 1430 1429 1428 1428 1428 1427 1427 1426 1426 1426 1426
1431 1431 1431 1432 1432 1433 1433 1433 1433 1433 1433 1433 1433 1433 1433 1434 1434 1434 1434 1434 1435 1434 1434 1434 1433 1433 1432 1432 1431 1430 1429 1428 1428 1427 1426 1425 1425 1424 1424 1423 1423 1422 1422